359  
ASUS43 KDTX 310710  
RWRMI  
MICHIGAN HOURLY REGIONAL WEATHER ROUNDUP  
NATIONAL WEATHER SERVICE DETROIT/PONTIAC MI  
300 AM EDT SUN MAY 31 2020  
 
NOTE: "FAIR" INDICATES FEW OR NO CLOUDS BELOW 12,000 FEET WITH NO  
SIGNIFICANT WEATHER AND/OR TO VISIBILITY
.  
 
MIZ047>049-052>055-059>063-066>070-074>076-081>083-310800-  
SOUTHEAST LOWER MICHIGAN  
 
CITY SKY/WX TMP DP RH WIND PRES REMARKS
 
ADRIAN CLEAR 48 42 80 N5 30.24R  
ALMA CLEAR 43 32 65 NW7 30.29S  
ANN ARBOR CLEAR 48 36 63 N5 30.23R  
BAD AXE PTCLDY 42 35 76 NW7 30.22S  
CARO CLEAR 46 35 64 NW7 30.24R  
DETROIT CITY CLEAR 48 39 71 NE5 30.23R  
DETROIT PTCLDY 49 39 68 N3 30.23R  
FLINT LGT RAIN 47 35 63 NW6 30.25R  
GROSSE ILE CLEAR 48 42 77 N5 30.22R  
HILLSDALE CLEAR 48 41 76 CALM 30.23R  
HOWELL CLEAR 46 37 69 NW5 30.24S  
 
CITY SKY/WX TMP DP RH WIND PRES REMARKS
 
JACKSON CLEAR 48 38 68 N6 30.25R  
LAMBERTVILLE CLEAR 47 46 94 CALM 30.23R  
LANSING CLEAR 45 35 68 N5 30.27R  
LAPEER FAIR 41 41 100 CALM 30.24R  
MASON CLEAR 46 37 68 N7 30.26R  
MONROE CLEAR 48 46 91 CALM 30.22R  
MT. CLEMENS CLEAR 44 44 98 N5 30.21S  
PONTIAC CLEAR 47 34 60 N9 30.22R  
PORT HOPE N/A 47 33 58 NW15G32 30.21S  
PORT HURON CLEAR 45 37 76 CALM 30.22S  
TRI CITIES CLEAR 44 35 70 NW10 30.28R  
MIDLAND FAIR 41 33 75 NW3 30.27S  
TROY CLEAR 49 40 71 NE3 30.25S  
SAGINAW HB CLEAR 43 32 65 NW9 30.26R  

 
MIZ043>046-050>051-056>058-064>065-071>073-077>080-310800-  
SOUTHWEST LOWER MICHIGAN  
 
CITY SKY/WX TMP DP RH WIND PRES REMARKS
 
BATTLE CREEK CLEAR 47 40 76 N9 30.27R  
BENTON HARBOR CLEAR 48 45 89 CALM 30.26R FOG  
BIG RAPIDS CLEAR 39 33 80 CALM 30.29S  
COLDWATER CLEAR 48 41 76 VRB5 30.25R  
FREMONT FAIR 42 31 64 NE3 30.30S  
HOLLAND CLEAR 48 33 56 VRB6 30.29R  
GRAND RAPIDS CLEAR 46 30 53 N10 30.28R  
IONIA FAIR 45 30 56 N8 30.27S  
KALAMAZOO CLEAR 49 40 71 NE7 30.27R  
LUDINGTON CLEAR 35 33 92 CALM 30.31S  
MARSHALL CLEAR 48 39 72 CALM 30.26R  
MOUNT PLEASANT CLEAR 42 32 67 NW3 30.28S  
MUSKEGON CLEAR 47 31 53 NE6 30.31R  
SOUTH HAVEN CLEAR 49 43 81 NE10 30.27R  

 
MIZ016>042-310800-  
NORTHERN LOWER MICHIGAN  
 
CITY SKY/WX TMP DP RH WIND PRES REMARKS
 
ALPENA CLEAR 39 32 76 NW7 30.25R WCI 34  
BEAVER ISLAND CLEAR 36 33 92 CALM 30.28S  
BELLAIRE CLEAR 34 33 94 CALM 30.29S  
CADILLAC CLEAR 32 27 82 CALM 30.27S  
CHARLEVOIX CLEAR 42 35 75 NW7 30.28S  
FRANKFORT CLEAR 35 33 91 CALM 30.30S  
GAYLORD CLEAR 37 30 75 VRB5 30.26R WCI 33  
GRAYLING CLEAR 33 31 91 W6 30.26S WCI 28  
HARBOR SPRINGS CLEAR 37 37 99 CALM 30.27S  
MANISTEE CLEAR 35 35 100 CALM 30.30F  
OSCODA CLEAR 37 31 78 NW6 30.23S WCI 32  
PELLSTON CLEAR 32 30 92 CALM 30.27S  
ROGERS CITY CLEAR 41 32 69 NW7 30.27R  
TRAVERSE CITY CLEAR 42 34 73 W5 30.28S  

 
MIZ007>008-015-310800-  
EASTERN UPPER MICHIGAN  
 
CITY SKY/WX TMP DP RH WIND PRES REMARKS
 
KINROSS CLEAR 37 34 89 NW7 30.25S WCI 32  
MACKINAC ISLAN CLEAR 38 32 78 NW6 30.26R WCI 34  
NEWBERRY CLEAR 37 32 83 W6 30.25S WCI 32  
S. S. MARIE CLEAR 39 34 82 NW6 30.24S WCI 35  
MUNISING N/A 33 30 88 S7 30.25F WCI 27  

 
MIZ004>006-011>014-085-310800-  
CENTRAL UPPER MICHIGAN  
 
CITY SKY/WX TMP DP RH WIND PRES REMARKS
 
MANISTIQUE CLEAR 32 30 93 CALM 30.26S  
ESCANABA CLEAR 35 34 96 CALM 30.29S  
MENOMINEE CLEAR 41 39 93 CALM 30.31S  
SAWYER-GWINN CLEAR 35 31 86 CALM 30.25F  

 
MIZ001>003-009>011-084-310800-  
WESTERN UPPER MICHIGAN  
 
CITY SKY/WX TMP DP RH WIND PRES REMARKS
 
IRON MOUNTAIN CLEAR 36 30 79 CALM 30.27S  
HOUGHTON CLEAR 45 29 53 W9 30.22F  
COPPER HARBOR N/A 49 30 48 VRB6 30.20F  
IRONWOOD CLEAR 36 34 92 CALM 30.29S  

 
 
ABBREVIATIONS USED IN REMARKS  
TC - TEMPERATURE IN CELSIUS  
WCI - WIND CHILL INDEX  
HX - HEAT INDEX  
VSB - VISIBILITY  
 
 
 
CLICK HERE TO GO TO PREVIOUS BULLETINS.

The Nexlab MI Page Main Text Page